[[{"header":{"parameterUnit":"m.s-1","parameterCategory":1,"la1":30.2991,"la2":30.254,"lo1":-89.0895,"lo2":-89.0444,"dy":0.0017,"dx":0.0017,"nx":28,"ny":28,"refTime":"2025-09-11T03:00:00:Z","depth":0,"parameterNumber":2,"parameterNumberName":"U-component_of_WINDS"},"data":[0,0,0,0,0,0,0,0,0,0,0,0,0,0,0,0,0,0,0,0,0,0,0,0,0,0,0,0,0,0,0,0,0,0,0,0,0,0,0,0,0,0,0,0,0,0,0,0,0,0,0,0,0,0,0,0,0,0,1.8457,1.8457,0,1.8521,1.8522,1.8523,1.8525,1.8525,1.8524,1.8523,1.8587,1.859,1.8592,0,0,0,0,0,0,0,0,0,0,0,0,0,1.8334,1.8336,1.8457,1.8457,1.8458,1.8521,1.8522,1.8523,1.8526,1.8525,1.8524,1.8523,1.8587,1.8589,1.8592,0,0,0,0,0,0,0,0,0,0,0,0,0,1.8392,1.8337,1.8456,1.8467,1.8469,1.8521,1.8522,1.8523,1.8526,1.8525,1.8524,1.8522,1.8586,1.8589,1.8593,1.8638,0,0,1.8604,1.8605,0,0,0,0,0,0,0,0,1.8388,1.8396,1.8465,1.8467,1.8468,1.8514,1.8502,1.8561,1.8526,1.8504,1.8523,1.8522,1.8564,1.8569,1.8584,1.8641,1.8644,1.8604,1.8606,1.8608,1.8609,0,0,0,0,0,0,0,1.8384,1.8393,1.8482,1.8466,1.8468,1.8468,1.8475,1.8513,1.8539,1.8506,1.8506,1.8514,1.8565,1.858,1.8585,1.8645,1.8604,1.8607,1.8609,1.8611,1.8742,1.8743,0,0,0,0,0,0,1.8378,1.839,1.848,1.8484,1.8425,1.8471,1.8479,1.8501,1.8539,1.8544,1.8515,1.8514,1.8575,1.8581,1.8587,1.8642,1.8608,1.8611,1.8613,1.874,1.8742,1.8743,0,0,0,0,0,0,1.8376,1.8386,1.8477,1.8437,1.8449,1.8475,1.8499,1.8502,1.8518,1.8546,1.855,1.8526,1.8574,1.8582,1.8625,1.8645,1.8613,1.8616,1.8739,1.8741,1.8743,1.8753,0,0,0,0,0,0,1.8372,1.8386,1.8403,1.8438,1.8451,1.8515,1.85,1.8505,1.8525,1.8524,1.8558,1.8562,1.8574,1.862,1.8629,1.8649,1.8619,1.8737,1.874,1.8742,1.8751,1.8755,1.8759,0,0,0,0,0,1.8368,1.8403,1.8404,1.8415,1.8474,1.8516,1.8523,1.8536,1.8526,1.8544,1.8562,1.8561,1.8642,1.8624,1.8635,1.8656,1.8736,1.8739,1.8742,1.8749,1.8754,1.8758,0,0,0,0,0,0,1.837,1.8408,1.8409,1.8457,1.8483,1.8516,1.8539,1.8541,1.8571,1.8569,1.8583,1.8591,1.8633,1.8649,1.8629,1.8702,1.8688,1.8693,1.869,1.8695,1.8698,1.8693,1.8622,0,0,0,0,0,1.8376,1.8407,1.8439,1.8478,1.8491,1.8513,1.8532,1.854,1.8567,1.8578,1.8599,1.8625,1.8656,1.8677,1.8707,1.8754,1.8761,1.8774,1.8777,1.878,1.8784,1.881,1.8816,1.8753,1.8753,1.8753,0,0,1.8388,1.8413,1.8432,1.8479,1.85,1.8532,1.8522,1.8556,1.858,1.8583,1.8625,1.8641,1.8672,1.8717,1.8738,1.8731,1.8803,1.8784,1.8786,1.8788,1.8813,1.8819,1.8825,1.8755,1.8755,1.8754,0,0,1.8427,1.8449,1.8484,1.8506,1.8538,1.8553,1.8561,1.8594,1.8606,1.8648,1.8651,1.8679,1.8733,1.8754,1.8772,1.882,1.882,1.8829,1.8848,1.8873,1.8878,1.8883,1.8899,1.8905,1.8833,1.8833,1.8833,0,1.8438,1.8487,1.8501,1.8536,1.8556,1.8561,1.8596,1.8616,1.8657,1.8671,1.8663,1.8731,1.8751,1.8801,1.8813,1.8828,1.8837,1.8825,1.8876,1.8881,1.8885,1.8901,1.8907,1.8834,1.8834,1.8834,1.8834,0,1.8498,1.8532,1.8556,1.8596,1.8619,1.8653,1.8673,1.8694,1.87,1.8715,1.8759,1.8784,1.8819,1.8832,1.8838,1.8883,1.8878,1.8874,1.8859,1.8892,1.8907,1.8913,1.8836,1.8835,1.8835,1.8835,0,0,1.8539,1.8587,1.8596,1.8614,1.8651,1.8676,1.8711,1.8746,1.8764,1.8793,1.8821,1.8867,1.8863,1.8883,1.8892,1.8914,1.895,1.8907,1.8908,1.8913,1.9,1.9002,1.9009,1.8951,1.8952,1.8953,1.8997,0,1.8581,1.8643,1.8658,1.8711,1.8742,1.8748,1.8778,1.8803,1.8819,1.8847,1.8863,1.8895,1.8888,1.89,1.8923,1.894,1.8967,1.8938,1.8977,1.8978,1.8968,1.9017,1.902,1.906,1.9003,1.9004,1.9005,0,1.8638,1.8668,1.8725,1.8758,1.8771,1.8798,1.8831,1.8859,1.8888,1.8897,1.892,1.8927,1.8963,1.8948,1.8997,1.8977,1.8994,1.9005,1.9007,1.901,1.8992,1.902,1.9074,1.9079,1.9014,1.9014,1.9013,0,1.8661,1.8716,1.8757,1.8772,1.8812,1.883,1.8847,1.8876,1.8896,1.8925,1.8938,1.8971,1.8989,1.9014,1.903,1.9017,1.9077,1.9064,1.9085,1.9085,1.9097,1.9095,1.9152,1.9109,1.9109,1.9109,1.9109,0,1.8706,1.874,1.8767,1.8792,1.883,1.8847,1.8884,1.8901,1.8926,1.8954,1.8962,1.8987,1.9007,1.9035,1.9047,1.9086,1.9094,1.9102,1.9105,1.9101,1.91,1.9111,1.9108,1.9111,1.911,1.911,1.911,0,1.8738,1.8758,1.8802,1.8836,1.8846,1.8872,1.8901,1.8925,1.8941,1.8976,1.8986,1.901,1.9044,1.9062,1.9105,1.9113,1.9156,1.9157,1.9146,1.9147,1.9167,1.9165,1.9232,1.9242,1.9194,1.9194,1.9194,0,1.8765,1.8791,1.8828,1.8848,1.8866,1.8897,1.8918,1.8935,1.8957,1.8992,1.9012,1.9047,1.9075,1.9129,1.915,1.9183,1.9184,1.9206,1.9189,1.9184,1.9184,1.9181,1.9184,1.9208,1.9209,1.9209,1.9209,0,1.881,1.8819,1.8849,1.8883,1.8908,1.8935,1.8962,1.8978,1.8999,1.9023,1.9058,1.908,1.9124,1.9158,1.9192,1.9209,1.9213,1.9215,1.9221,1.9217,1.9209,1.9213,1.9153,1.9213,1.9212,1.9212,1.9212,1.9212,1.884,1.8864,1.8893,1.8927,1.8949,1.8974,1.8998,1.9018,1.9047,1.9084,1.9093,1.913,1.9158,1.9205,1.9223,1.9252,1.9248,1.9257,1.926,1.9261,1.9262,1.9206,1.9258,1.9258,1.9258,1.9258,1.9258,0,1.8885,1.8905,1.8935,1.8973,1.8999,1.9001,1.9031,1.9053,1.9085,1.9112,1.914,1.918,1.9214,1.9238,1.9272,1.929,1.9292,1.9298,1.9296,1.93,1.9264,1.9255,1.9296,1.9296,1.9296,1.9296,1.9296,1.9296,1.8911,1.8951,1.8963,1.9014,1.9034,1.907,1.9087,1.911,1.9131,1.9176,1.9204,1.922,1.9245,1.9281,1.9311,1.9318,1.9329,1.9335,1.9341,1.9307,1.9303,1.9299,1.929,1.9337,1.9338,1.9374,1.9375,1.9375]},{"header":{"parameterUnit":"m.s-1","parameterCategory":1,"la1":30.2991,"la2":30.254,"lo1":-89.0895,"lo2":-89.0444,"dy":0.0017,"dx":0.0017,"nx":28,"ny":28,"refTime":"2025-09-11T03:00:00:Z","depth":0,"parameterNumber":3,"parameterNumberName":"V-component_of_WINDS"},"data":[0,0,0,0,0,0,0,0,0,0,0,0,0,0,0,0,0,0,0,0,0,0,0,0,0,0,0,0,0,0,0,0,0,0,0,0,0,0,0,0,0,0,0,0,0,0,0,0,0,0,0,0,0,0,0,0,0,0,-1.5072,-1.5073,0,-1.5165,-1.5166,-1.5167,-1.5197,-1.5197,-1.5197,-1.5196,-1.5292,-1.5295,-1.5298,0,0,0,0,0,0,0,0,0,0,0,0,0,-1.4921,-1.4924,-1.5072,-1.5073,-1.5074,-1.5165,-1.5166,-1.5167,-1.5197,-1.5197,-1.5196,-1.5196,-1.5291,-1.5294,-1.5298,0,0,0,0,0,0,0,0,0,0,0,0,0,-1.4998,-1.4925,-1.5071,-1.51,-1.5103,-1.5164,-1.5166,-1.5168,-1.5198,-1.5197,-1.5196,-1.5196,-1.529,-1.5294,-1.5298,-1.5338,0,0,-1.5312,-1.5314,0,0,0,0,0,0,0,0,-1.4993,-1.5003,-1.5095,-1.5098,-1.5102,-1.5169,-1.5148,-1.5225,-1.5198,-1.5162,-1.5196,-1.5195,-1.5251,-1.5259,-1.5278,-1.5342,-1.5346,-1.5312,-1.5315,-1.5317,-1.5318,0,0,0,0,0,0,0,-1.4988,-1.4999,-1.5109,-1.5096,-1.5101,-1.5109,-1.5119,-1.5163,-1.5209,-1.5165,-1.5167,-1.5178,-1.5253,-1.5273,-1.528,-1.5348,-1.5312,-1.5316,-1.5319,-1.532,-1.545,-1.5451,0,0,0,0,0,0,-1.4978,-1.4995,-1.5106,-1.5111,-1.5045,-1.5112,-1.5123,-1.5148,-1.5209,-1.5217,-1.5178,-1.5179,-1.5266,-1.5275,-1.5284,-1.5334,-1.5317,-1.5321,-1.5323,-1.545,-1.545,-1.5451,0,0,0,0,0,0,-1.4974,-1.4987,-1.5102,-1.5054,-1.5069,-1.5115,-1.5143,-1.515,-1.517,-1.5219,-1.5227,-1.519,-1.5266,-1.5278,-1.5324,-1.5338,-1.5323,-1.5327,-1.5449,-1.545,-1.5451,-1.5435,0,0,0,0,0,0,-1.497,-1.4986,-1.5001,-1.5054,-1.5071,-1.514,-1.5144,-1.5152,-1.5178,-1.5179,-1.5232,-1.524,-1.5267,-1.5318,-1.5329,-1.5344,-1.533,-1.5448,-1.5449,-1.5451,-1.5434,-1.5435,-1.5436,0,0,0,0,0,-1.4965,-1.4993,-1.5002,-1.5015,-1.5091,-1.5141,-1.5151,-1.518,-1.5179,-1.5194,-1.5226,-1.5239,-1.5335,-1.5322,-1.5335,-1.5351,-1.5447,-1.5449,-1.545,-1.5434,-1.5435,-1.5436,0,0,0,0,0,0,-1.494,-1.5,-1.5011,-1.5057,-1.5093,-1.5146,-1.5166,-1.5181,-1.5219,-1.5219,-1.5254,-1.5266,-1.531,-1.5336,-1.532,-1.5393,-1.5392,-1.5396,-1.5375,-1.5376,-1.5377,-1.537,-1.5334,0,0,0,0,0,-1.494,-1.4975,-1.5026,-1.5062,-1.508,-1.512,-1.5143,-1.5162,-1.5202,-1.5218,-1.5253,-1.5291,-1.533,-1.5355,-1.5393,-1.5439,-1.5451,-1.5456,-1.5457,-1.5458,-1.5461,-1.5488,-1.5491,-1.5457,-1.5457,-1.5457,0,0,-1.494,-1.4977,-1.4997,-1.5058,-1.5089,-1.5125,-1.5133,-1.517,-1.5198,-1.5224,-1.527,-1.5297,-1.5342,-1.5388,-1.541,-1.5411,-1.5473,-1.546,-1.546,-1.5463,-1.549,-1.5493,-1.5496,-1.5459,-1.5458,-1.5458,0,0,-1.4959,-1.499,-1.5024,-1.5055,-1.5101,-1.5128,-1.5136,-1.5187,-1.5206,-1.5253,-1.5274,-1.5307,-1.5373,-1.5405,-1.5429,-1.5461,-1.5475,-1.5473,-1.5477,-1.5503,-1.5506,-1.5508,-1.5519,-1.5523,-1.5476,-1.5476,-1.5476,0,-1.4953,-1.5007,-1.5039,-1.5076,-1.5102,-1.5128,-1.5162,-1.5191,-1.5248,-1.5265,-1.5265,-1.535,-1.5382,-1.5436,-1.5444,-1.5463,-1.5474,-1.5466,-1.5503,-1.5505,-1.5508,-1.552,-1.5524,-1.5476,-1.5476,-1.5476,-1.5476,0,-1.4998,-1.5036,-1.5057,-1.5112,-1.5141,-1.5176,-1.5213,-1.5239,-1.5257,-1.5284,-1.5332,-1.5372,-1.5419,-1.5433,-1.5451,-1.5491,-1.549,-1.5496,-1.5494,-1.551,-1.5521,-1.5526,-1.5475,-1.5475,-1.5475,-1.5475,0,0,-1.5002,-1.5075,-1.5082,-1.5107,-1.5161,-1.5191,-1.5229,-1.5275,-1.5296,-1.5335,-1.5367,-1.5423,-1.543,-1.5458,-1.5479,-1.5502,-1.5525,-1.5505,-1.5507,-1.5507,-1.5571,-1.5566,-1.557,-1.5535,-1.5536,-1.5536,-1.5567,0,-1.5027,-1.5094,-1.5124,-1.5178,-1.5213,-1.5239,-1.5271,-1.5308,-1.5335,-1.537,-1.54,-1.5439,-1.5444,-1.5461,-1.5485,-1.5517,-1.5538,-1.5515,-1.5565,-1.5566,-1.5552,-1.5576,-1.557,-1.5597,-1.5572,-1.5573,-1.5573,0,-1.5065,-1.5104,-1.5161,-1.5212,-1.5228,-1.5256,-1.5301,-1.5334,-1.5377,-1.5395,-1.5427,-1.5448,-1.5489,-1.5486,-1.5542,-1.5526,-1.5549,-1.5568,-1.557,-1.5575,-1.557,-1.5581,-1.5607,-1.5611,-1.5581,-1.558,-1.558,0,-1.5062,-1.5129,-1.5172,-1.5193,-1.5253,-1.5272,-1.5299,-1.5341,-1.5367,-1.5407,-1.5425,-1.5469,-1.5493,-1.5527,-1.556,-1.5555,-1.5614,-1.5613,-1.563,-1.5629,-1.564,-1.5639,-1.5669,-1.5656,-1.5655,-1.5655,-1.5655,0,-1.5086,-1.512,-1.5171,-1.5197,-1.5236,-1.5271,-1.5309,-1.5337,-1.5375,-1.5407,-1.5433,-1.5463,-1.5505,-1.554,-1.5566,-1.561,-1.562,-1.5636,-1.5643,-1.5634,-1.5631,-1.5648,-1.5647,-1.5657,-1.5656,-1.5656,-1.5656,0,-1.5089,-1.5124,-1.5173,-1.5226,-1.5241,-1.5267,-1.5313,-1.534,-1.5368,-1.5409,-1.5421,-1.5466,-1.5509,-1.5546,-1.5603,-1.562,-1.5665,-1.5673,-1.565,-1.5653,-1.5668,-1.5666,-1.5709,-1.5717,-1.5698,-1.5699,-1.5699,0,-1.5101,-1.5128,-1.5185,-1.5208,-1.5234,-1.5272,-1.5299,-1.5335,-1.5362,-1.5414,-1.5434,-1.548,-1.5518,-1.5586,-1.5624,-1.5668,-1.5677,-1.5689,-1.5684,-1.5674,-1.5677,-1.5674,-1.5677,-1.5689,-1.5689,-1.5689,-1.5689,0,-1.512,-1.5137,-1.5175,-1.5219,-1.525,-1.5287,-1.5324,-1.5343,-1.5386,-1.5415,-1.546,-1.5489,-1.5548,-1.5593,-1.5641,-1.5669,-1.5686,-1.5691,-1.5697,-1.5687,-1.5673,-1.5681,-1.5651,-1.5689,-1.5689,-1.5689,-1.5689,-1.5689,-1.5128,-1.5153,-1.5197,-1.5238,-1.527,-1.5305,-1.5333,-1.5365,-1.5403,-1.5453,-1.5473,-1.5518,-1.5562,-1.5629,-1.5657,-1.5694,-1.5696,-1.5705,-1.5707,-1.5709,-1.5707,-1.5668,-1.5703,-1.5703,-1.5703,-1.5703,-1.5703,0,-1.5148,-1.5178,-1.5215,-1.5267,-1.53,-1.5314,-1.5356,-1.5383,-1.5423,-1.5462,-1.5499,-1.5551,-1.5595,-1.5637,-1.5683,-1.5705,-1.5714,-1.5716,-1.5714,-1.572,-1.5703,-1.5692,-1.5707,-1.5707,-1.5707,-1.5707,-1.5707,-1.5707,-1.5162,-1.5205,-1.5227,-1.5286,-1.5316,-1.5361,-1.5384,-1.5417,-1.5448,-1.5505,-1.5541,-1.5568,-1.5609,-1.5659,-1.57,-1.5711,-1.5727,-1.5726,-1.574,-1.5722,-1.5721,-1.572,-1.5711,-1.573,-1.573,-1.5754,-1.5755,-1.5755]}]]